NR0A-4 Weather Reports


Display with metric or nautical units.
time (UTC)temp
F
wind
direction
speed
MPH
gust
MPH
rain 1hr
in
rain 24hr
in
rain mn
in
humidity
%
barometer
mb
20260507022504 50 316 0.0 0.0 0.00 0.00 0.00 39 1014.3
20260507022004 50 316 0.0 0.0 0.00 0.00 0.00 38 1014.3
20260507021504 50 316 0.0 0.0 0.00 0.00 0.00 37 1014.2
20260507021005 50 314 0.0 0.0 0.00 0.00 0.00 37 1014.3
20260507020504 51 317 0.0 0.0 0.00 0.00 0.00 37 1014.2
20260507020004 51 317 0.0 0.0 0.00 0.00 0.00 35 1014.2
20260507015505 51 309 0.0 0.0 0.00 0.00 0.00 38 1014.1
20260507015004 52 309 0.0 0.0 0.00 0.00 0.00 37 1014.2
20260507014504 52 309 0.0 0.0 0.00 0.00 0.00 39 1014.2
20260507014004 53 309 0.0 1.0 0.00 0.00 0.00 36 1014.2
20260507013504 53 285 0.0 0.0 0.00 0.00 0.00 35 1014.2
20260507013005 54 285 0.0 0.0 0.00 0.00 0.00 36 1014.2
20260507012504 54 279 0.0 2.0 0.00 0.00 0.00 34 1014.2
20260507012004 55 287 0.0 3.0 0.00 0.00 0.00 31 1014.2
20260507011504 55 277 1.0 3.0 0.00 0.00 0.00 31 1014.2
20260507011004 55 296 1.0 2.0 0.00 0.00 0.00 33 1014.2
20260507010504 56 262 0.0 0.0 0.00 0.00 0.00 32 1014.2
20260507010004 56 283 0.0 2.0 0.00 0.00 0.00 32 1014.2
20260507005504 56 281 0.0 0.0 0.00 0.00 0.00 31 1014.3
20260507005004 56 221 0.0 1.0 0.00 0.00 0.00 31 1014.3
20260507004504 57 249 0.0 0.0 0.00 0.00 0.00 31 1014.3
20260507004004 57 259 1.0 2.0 0.00 0.00 0.00 31 1014.3
20260507003504 57 275 1.0 3.0 0.00 0.00 0.00 29 1014.3
20260507003004 57 281 1.0 3.0 0.00 0.00 0.00 30 1014.3
20260507002504 58 292 2.0 5.0 0.00 0.00 0.00 30 1014.3
20260507002004 58 222 1.0 8.0 0.00 0.00 0.00 29 1014.4
20260507001504 59 212 2.0 7.0 0.00 0.00 0.00 27 1014.4
20260507001004 59 260 2.0 8.0 0.00 0.00 0.00 29 1014.5
20260507000504 59 272 1.0 3.0 0.00 0.00 0.00 28 1014.5
20260507000004 59 267 1.0 9.0 0.00 0.00 0.00 28 1014.6
20260506235504 60 207 4.0 9.0 0.00 0.00 0.00 27 1014.6
20260506235004 60 206 3.0 8.0 0.00 0.00 0.00 27 1014.6
20260506234505 60 197 5.0 12.0 0.00 0.00 0.00 27 1014.7
20260506234004 60 207 6.0 13.0 0.00 0.00 0.00 27 1014.7
20260506233504 59 223 5.0 10.0 0.00 0.00 0.00 28 1014.7
20260506233004 59 209 3.0 12.0 0.00 0.00 0.00 27 1014.8
20260506232504 59 218 3.0 7.0 0.00 0.00 0.00 28 1014.9
20260506232004 59 259 3.0 6.0 0.00 0.00 0.00 29 1014.9
20260506231504 59 245 2.0 5.0 0.00 0.00 0.00 28 1015.0
20260506231004 59 225 3.0 7.0 0.00 0.00 0.00 27 1014.9
20260506230504 59 243 3.0 10.0 0.00 0.00 0.00 28 1014.9
20260506230004 59 211 5.0 12.0 0.00 0.00 0.00 25 1015.0
20260506225504 60 208 5.0 10.0 0.00 0.00 0.00 28 1015.0
20260506225005 60 342 1.0 6.0 0.00 0.00 0.00 28 1015.0
20260506224504 59 317 2.0 6.0 0.00 0.00 0.00 29 1015.0
20260506224004 59 264 3.0 5.0 0.00 0.00 0.00 29 1015.2
20260506223504 59 217 1.0 5.0 0.00 0.00 0.00 30 1015.2
20260506223004 59 204 2.0 9.0 0.00 0.00 0.00 29 1015.3
20260506222504 60 273 2.0 3.0 0.00 0.00 0.00 28 1015.3
20260506222004 61 250 2.0 9.0 0.00 0.00 0.00 29 1015.4
20260506221504 61 257 6.0 15.0 0.00 0.00 0.00 28 1015.3
20260506221004 60 306 6.0 12.0 0.00 0.00 0.00 29 1015.3
20260506220504 59 279 3.0 8.0 0.00 0.00 0.00 29 1015.4
20260506220004 58 215 2.0 6.0 0.00 0.00 0.00 29 1015.5
20260506215504 58 250 1.0 6.0 0.00 0.00 0.00 28 1015.6
20260506215006 58 228 3.0 5.0 0.00 0.00 0.00 28 1015.6
20260506214504 59 181 3.0 7.0 0.00 0.00 0.00 27 1015.7
20260506214004 59 225 2.0 12.0 0.00 0.00 0.00 30 1015.8
20260506213504 59 228 3.0 8.0 0.00 0.00 0.00 28 1015.8
20260506213005 59 223 3.0 8.0 0.00 0.00 0.00 27 1015.8
20260506212504 60 219 2.0 9.0 0.00 0.00 0.00 26 1015.9
20260506212004 60 215 5.0 9.0 0.00 0.00 0.00 28 1016.0
20260506211504 59 219 3.0 7.0 0.00 0.00 0.00 28 1016.0
20260506211005 59 280 6.0 12.0 0.00 0.00 0.00 28 1016.1
20260506210505 59 0 2.0 6.0 0.00 0.00 0.00 26 1016.1
20260506210004 58 272 3.0 7.0 0.00 0.00 0.00 28 1016.3
20260506205504 58 293 3.0 8.0 0.00 0.00 0.00 28 1016.3
20260506205004 59 269 5.0 12.0 0.00 0.00 0.00 27 1016.4
20260506204504 59 208 4.0 12.0 0.00 0.00 0.00 26 1016.4
20260506204005 60 199 2.0 6.0 0.00 0.00 0.00 28 1016.5
20260506203505 59 183 4.0 10.0 0.00 0.00 0.00 28 1016.5
20260506203005 59 223 4.0 10.0 0.00 0.00 0.00 27 1016.6
20260506202505 60 251 3.0 8.0 0.00 0.00 0.00 28 1016.5
20260506202004 60 190 6.0 10.0 0.00 0.00 0.00 29 1016.6
20260506201504 60 237 5.0 9.0 0.00 0.00 0.00 27 1016.7
20260506201004 60 204 7.0 16.0 0.00 0.00 0.00 28 1016.7
20260506200505 60 269 6.0 12.0 0.00 0.00 0.00 30 1016.8
20260506200004 60 262 3.0 13.0 0.00 0.00 0.00 28 1016.8
20260506195504 59 288 3.0 8.0 0.00 0.00 0.00 29 1016.7
20260506195004 59 280 5.0 10.0 0.00 0.00 0.00 27 1016.9
20260506194504 58 208 6.0 9.0 0.00 0.00 0.00 28 1017.0
20260506194005 59 291 4.0 12.0 0.00 0.00 0.00 30 1017.0
20260506193504 59 272 4.0 10.0 0.00 0.00 0.00 31 1017.0
20260506193004 58 223 5.0 12.0 0.00 0.00 0.00 32 1017.0
20260506192504 57 283 3.0 8.0 0.00 0.00 0.00 31 1017.1
20260506192005 58 223 3.0 12.0 0.00 0.00 0.00 30 1017.1
20260506191504 58 266 2.0 12.0 0.00 0.00 0.00 28 1017.2
20260506191004 59 246 6.0 14.0 0.00 0.00 0.00 30 1017.1
20260506190504 59 230 5.0 10.0 0.00 0.00 0.00 32 1017.2
20260506190005 58 206 6.0 15.0 0.00 0.00 0.00 31 1017.3
20260506185504 58 262 7.0 13.0 0.00 0.00 0.00 32 1017.3
20260506185005 57 270 3.0 8.0 0.00 0.00 0.00 31 1017.3
20260506184504 57 276 6.0 15.0 0.00 0.00 0.00 30 1017.5
20260506184004 57 282 2.0 8.0 0.00 0.00 0.00 33 1017.5
20260506183504 57 228 3.0 12.0 0.00 0.00 0.00 33 1017.6
20260506183005 57 276 6.0 10.0 0.00 0.00 0.00 30 1017.7
20260506182504 57 270 5.0 12.0 0.00 0.00 0.00 35 1018.0
20260506182005 56 256 5.0 12.0 0.00 0.00 0.00 34 1017.8
20260506181504 55 262 3.0 10.0 0.00 0.00 0.00 32 1017.9
20260506181005 55 273 6.0 12.0 0.00 0.00 0.00 31 1017.9
20260506180504 55 243 4.0 12.0 0.00 0.00 0.00 33 1018.1
20260506180005 56 286 5.0 12.0 0.00 0.00 0.00 33 1018.1
20260506175504 55 293 3.0 8.0 0.00 0.00 0.00 34 1018.1
20260506175005 55 260 6.0 10.0 0.00 0.00 0.00 32 1018.2
20260506174504 55 281 5.0 10.0 0.00 0.00 0.00 33 1018.2
20260506174004 55 282 2.0 6.0 0.00 0.00 0.00 35 1018.2
20260506173505 54 211 3.0 12.0 0.00 0.00 0.00 32 1018.2
20260506173005 55 270 3.0 9.0 0.00 0.00 0.00 32 1018.3
20260506172504 56 247 3.0 9.0 0.00 0.00 0.00 34 1018.3
20260506172004 55 250 4.0 12.0 0.00 0.00 0.00 36 1018.4
20260506171504 55 259 4.0 14.0 0.00 0.00 0.00 33 1018.3
20260506171005 55 267 6.0 12.0 0.00 0.00 0.00 34 1018.4
20260506170504 55 235 3.0 8.0 0.00 0.00 0.00 34 1018.5
20260506170004 55 212 4.0 9.0 0.00 0.00 0.00 33 1018.5
20260506165504 55 270 5.0 12.0 0.00 0.00 0.00 33 1018.6
20260506165005 55 227 1.0 7.0 0.00 0.00 0.00 36 1018.6
20260506164504 54 278 6.0 12.0 0.00 0.00 0.00 40 1018.8
20260506164004 54 293 3.0 10.0 0.00 0.00 0.00 35 1018.8
20260506163504 53 273 7.0 13.0 0.00 0.00 0.00 35 1018.9
20260506163005 53 259 3.0 6.0 0.00 0.00 0.00 38 1018.8
20260506162504 52 300 2.0 10.0 0.00 0.00 0.00 36 1018.8
20260506162005 52 273 2.0 12.0 0.00 0.00 0.00 35 1018.8
20260506161504 52 250 2.0 9.0 0.00 0.00 0.00 36 1018.6
20260506161005 52 214 3.0 13.0 0.00 0.00 0.00 35 1018.6
20260506160504 52 259 4.0 8.0 0.00 0.00 0.00 36 1018.6
20260506160004 52 282 7.0 15.0 0.00 0.00 0.00 34 1018.6
20260506155504 53 256 4.0 7.0 0.00 0.00 0.00 34 1018.6
20260506155004 53 279 6.0 12.0 0.00 0.00 0.00 36 1018.6
20260506154504 53 275 5.0 12.0 0.00 0.00 0.00 35 1018.5
20260506154004 52 233 3.0 10.0 0.00 0.00 0.00 38 1018.6
20260506153504 53 286 3.0 9.0 0.00 0.00 0.00 36 1018.7
20260506153004 52 271 2.0 8.0 0.00 0.00 0.00 38 1018.8
20260506152504 52 276 3.0 9.0 0.00 0.00 0.00 37 1018.6
20260506152005 52 288 8.0 13.0 0.00 0.00 0.00 37 1018.5
20260506151504 52 296 4.0 10.0 0.00 0.00 0.00 37 1018.6
20260506151004 52 227 1.0 3.0 0.00 0.00 0.00 41 1018.6
20260506150505 51 269 1.0 7.0 0.00 0.00 0.00 39 1018.7
20260506150004 51 272 2.0 7.0 0.00 0.00 0.00 41 1018.8
20260506145504 51 284 3.0 8.0 0.00 0.00 0.00 40 1018.7
20260506145004 51 226 5.0 10.0 0.00 0.00 0.00 41 1018.8
20260506144504 51 254 2.0 5.0 0.00 0.00 0.00 41 1018.8
20260506144005 51 226 3.0 8.0 0.00 0.00 0.00 42 1018.9
20260506143504 50 281 3.0 6.0 0.00 0.00 0.00 44 1018.9
20260506143004 49 226 3.0 7.0 0.00 0.00 0.00 43 1018.8
20260506142504 49 248 2.0 3.0 0.00 0.00 0.00 45 1018.7
20260506142004 48 285 3.0 7.0 0.00 0.00 0.00 43 1018.7
20260506141504 48 307 3.0 5.0 0.00 0.00 0.00 43 1018.7
20260506141004 48 272 2.0 6.0 0.00 0.00 0.00 45 1018.7
20260506140504 48 218 2.0 5.0 0.00 0.00 0.00 46 1018.7
20260506140004 47 236 2.0 6.0 0.00 0.00 0.00 47 1018.7
20260506135504 46 255 1.0 3.0 0.00 0.00 0.00 48 1018.7
20260506135004 46 225 1.0 3.0 0.00 0.00 0.00 53 1018.7
20260506134504 45 246 1.0 2.0 0.00 0.00 0.00 52 1018.7
20260506134004 43 200 1.0 3.0 0.00 0.00 0.00 58 1018.7
20260506133504 42 207 0.0 2.0 0.00 0.00 0.00 61 1018.7
20260506133004 41 183 1.0 3.0 0.00 0.00 0.00 63 1018.6
20260506132504 40 215 0.0 1.0 0.00 0.00 0.00 64 1018.7
20260506132005 39 215 1.0 2.0 0.00 0.00 0.00 66 1018.7
20260506131504 38 215 1.0 2.0 0.00 0.00 0.00 68 1018.6
20260506131004 37 215 0.0 0.0 0.00 0.00 0.00 69 1018.5
20260506130504 36 215 0.0 0.0 0.00 0.00 0.00 70 1018.5
20260506130005 36 215 0.0 0.0 0.00 0.00 0.00 71 1018.5
20260506125504 35 215 0.0 0.0 0.00 0.00 0.00 70 1018.4
20260506125005 35 215 0.0 1.0 0.00 0.00 0.00 70 1018.4
20260506124504 34 229 0.0 0.0 0.00 0.00 0.00 70 1018.3
20260506124004 34 229 0.0 0.0 0.00 0.00 0.00 70 1018.1
20260506123504 33 229 0.0 0.0 0.00 0.00 0.00 71 1018.1
20260506123004 33 229 0.0 0.0 0.00 0.00 0.00 71 1018.0
20260506122504 32 229 0.0 0.0 0.00 0.00 0.00 71 1018.0
20260506122004 32 229 0.0 0.0 0.00 0.00 0.00 70 1017.9
20260506121504 31 229 0.0 0.0 0.00 0.00 0.00 71 1017.8
20260506121004 31 229 0.0 0.0 0.00 0.00 0.00 71 1017.7
20260506120504 31 229 0.0 0.0 0.00 0.00 0.00 72 1017.7
20260506120004 31 229 0.0 1.0 0.00 0.00 0.00 71 1017.6
20260506115504 31 229 0.0 1.0 0.00 0.00 0.00 72 1017.6
20260506115004 31 214 0.0 0.0 0.00 0.00 0.00 72 1017.6
20260506114504 31 214 0.0 0.0 0.00 0.00 0.00 72 1017.5
20260506114005 31 236 0.0 0.0 0.00 0.00 0.00 71 1017.4
20260506113504 31 238 0.0 2.0 0.00 0.00 0.00 72 1017.3
20260506113004 31 240 1.0 2.0 0.00 0.00 0.00 72 1017.3
20260506112505 31 225 1.0 3.0 0.00 0.00 0.00 71 1017.2
20260506112005 31 237 1.0 3.0 0.00 0.00 0.00 71 1017.1
20260506111504 31 231 1.0 3.0 0.00 0.00 0.00 71 1017.0
20260506111004 31 230 1.0 3.0 0.00 0.00 0.00 71 1017.1
20260506110504 31 241 0.0 2.0 0.00 0.00 0.00 71 1017.0
20260506110004 32 242 0.0 2.0 0.00 0.00 0.00 72 1016.9
20260506105504 32 238 0.0 1.0 0.00 0.00 0.00 71 1016.9
20260506105004 32 238 1.0 2.0 0.00 0.00 0.00 71 1016.8
20260506104505 32 232 1.0 2.0 0.00 0.00 0.00 70 1016.8
20260506104004 32 275 0.0 2.0 0.00 0.00 0.00 69 1016.8
20260506103505 32 298 0.0 0.0 0.00 0.00 0.00 68 1016.9
20260506103004 33 298 0.0 0.0 0.00 0.00 0.00 68 1016.8
20260506102504 33 298 0.0 0.0 0.00 0.00 0.00 67 1016.8
20260506102004 33 298 0.0 0.0 0.00 0.00 0.00 67 1016.7
20260506101504 33 298 0.0 0.0 0.00 0.00 0.00 68 1016.7
20260506101004 33 298 0.0 0.0 0.00 0.00 0.00 68 1016.7
20260506100504 34 298 0.0 0.0 0.00 0.00 0.00 67 1016.7
20260506100005 34 298 0.0 0.0 0.00 0.00 0.00 66 1016.6
20260506095505 34 298 0.0 0.0 0.00 0.00 0.00 65 1016.6
20260506095004 35 298 0.0 0.0 0.00 0.00 0.00 64 1016.5
20260506094504 35 298 0.0 0.0 0.00 0.00 0.00 64 1016.5
20260506094004 35 298 0.0 0.0 0.00 0.00 0.00 63 1016.4
20260506093505 36 298 0.0 0.0 0.00 0.00 0.00 61 1016.5
20260506093004 36 302 0.0 1.0 0.00 0.00 0.00 61 1016.4
20260506092504 36 300 0.0 1.0 0.00 0.00 0.00 61 1016.3
20260506092005 36 297 0.0 0.0 0.00 0.00 0.00 61 1016.3
20260506091504 36 306 0.0 1.0 0.00 0.00 0.00 61 1016.2
20260506091004 36 300 0.0 2.0 0.00 0.00 0.00 61 1016.2
20260506090504 36 297 1.0 2.0 0.00 0.00 0.00 61 1016.2
20260506090004 36 303 0.0 2.0 0.00 0.00 0.00 61 1016.2
20260506085504 36 295 1.0 2.0 0.00 0.00 0.00 60 1016.3
20260506085004 37 295 1.0 2.0 0.00 0.00 0.00 61 1016.3
20260506084504 37 305 0.0 2.0 0.00 0.00 0.00 60 1016.2
20260506084004 37 299 0.0 2.0 0.00 0.00 0.00 60 1016.2
20260506083504 37 309 0.0 2.0 0.00 0.00 0.00 60 1016.2
20260506083005 37 300 0.0 1.0 0.00 0.00 0.00 61 1016.2
20260506082504 37 310 0.0 0.0 0.00 0.00 0.00 59 1016.2
20260506082004 37 311 0.0 1.0 0.00 0.00 0.00 60 1016.1
20260506081505 37 300 0.0 1.0 0.00 0.00 0.00 60 1016.2
20260506081005 38 284 1.0 2.0 0.00 0.00 0.00 60 1016.2
20260506080504 38 297 0.0 0.0 0.00 0.00 0.00 60 1016.2
20260506073504 38 270 0.0 0.0 0.00 0.00 0.00 58 1016.2
20260506073004 39 270 0.0 2.0 0.00 0.00 0.00 57 1016.2
20260506072503 39 276 1.0 2.0 0.00 0.00 0.00 56 1016.2
20260506072004 39 278 2.0 3.0 0.00 0.00 0.00 57 1016.3
20260506071504 39 273 1.0 3.0 0.00 0.00 0.00 56 1016.2
20260506071005 39 272 2.0 3.0 0.00 0.00 0.00 56 1016.1
20260506070504 39 269 0.0 0.0 0.00 0.00 0.00 57 1016.0
20260506062504 39 288 0.0 0.0 0.00 0.00 0.00 55 1015.9
20260506062004 40 288 0.0 0.0 0.00 0.00 0.00 55 1015.9
20260506061504 40 288 0.0 0.0 0.00 0.00 0.00 54 1015.8
20260506061005 40 288 0.0 0.0 0.00 0.00 0.00 54 1015.8
20260506060504 40 288 0.0 0.0 0.00 0.00 0.00 54 1015.9
20260506051004 55 293 0.0 0.0 0.00 0.00 0.00 35 1012.4
20260506050505 55 298 0.0 0.0 0.00 0.00 0.00 35 1012.4
20260506045004 55 292 0.0 2.0 0.00 0.00 0.00 35 1012.4
20260506044504 55 310 1.0 2.0 0.00 0.00 0.00 35 1012.4
20260506044004 55 299 0.0 3.0 0.00 0.00 0.00 35 1012.4
20260506043504 55 277 0.0 2.0 0.00 0.00 0.00 35 1012.4
20260506043004 55 285 1.0 1.0 0.00 0.00 0.00 35 1012.4
20260506042503 55 285 0.0 2.0 0.00 0.00 0.00 35 1012.4
20260506042004 55 299 0.0 0.0 0.00 0.00 0.00 35 1012.4
20260506041504 55 309 1.0 2.0 0.00 0.00 0.00 35 1012.4
20260506041004 55 304 1.0 2.0 0.00 0.00 0.00 35 1012.4
20260506040504 55 322 0.0 2.0 0.00 0.00 0.00 35 1012.4
20260506040004 55 313 0.0 2.0 0.00 0.00 0.00 35 1012.4
20260506035504 55 319 0.0 2.0 0.00 0.00 0.00 35 1012.4
20260506035004 55 295 0.0 3.0 0.00 0.00 0.00 35 1012.4
20260506034504 55 249 2.0 3.0 0.00 0.00 0.00 35 1012.4
20260506034004 55 271 1.0 3.0 0.00 0.00 0.00 35 1012.4
20260506033504 55 269 1.0 3.0 0.00 0.00 0.00 35 1012.4
20260506033004 55 288 1.0 2.0 0.00 0.00 0.00 35 1012.4
20260506032504 55 271 0.0 3.0 0.00 0.00 0.00 35 1012.4
20260506032004 55 297 1.0 3.0 0.00 0.00 0.00 35 1012.4
20260506031504 55 276 0.0 2.0 0.00 0.00 0.00 35 1012.4
20260506031005 55 292 1.0 3.0 0.00 0.00 0.00 35 1012.4
20260506030504 55 273 2.0 3.0 0.00 0.00 0.00 35 1012.4
20260506030004 55 292 2.0 3.0 0.00 0.00 0.00 35 1012.4
20260506025504 55 286 2.0 3.0 0.00 0.00 0.00 35 1012.4
20260506025004 55 304 0.0 3.0 0.00 0.00 0.00 35 1012.4
20260506024504 55 300 2.0 8.0 0.00 0.00 0.00 35 1012.4
20260506024005 55 297 2.0 3.0 0.00 0.00 0.00 35 1012.4
20260506023504 55 277 2.0 3.0 0.00 0.00 0.00 35 1012.4
20260506023005 55 284 2.0 3.0 0.00 0.00 0.00 35 1012.4